Regional Weather Roundup
Issued by NWS Sterling, VA

Home | Current Version | Previous Version | Graphics & Text | Print | Product List | Glossary On
Versions: 1 2 3 4 5 6 7 8 9 10 11 12 13 14 15 16 17 18 19 20 21 22 23 24 25 26 27 28 29 30 31 32 33 34 35 36 37 38 39 40 41 42 43 44 45 46 47 48 49 50
000
ASUS41 KLWX 311610
RWRLWX

REGIONAL WEATHER ROUNDUP
NATIONAL WEATHER SERVICE BALTIMORE MD/WASHINGTON DC
1100 AM EST SAT JAN 31 2015

Note: "FAIR" indicates few or no clouds below 12,000 feet
with no significant weather and/or obstructions to visibility.
 TC=TEMPERATURE CELSIUS

 * =Non NWS site. Station does not report precipitation (e.g. rain,
    snow, etc.), thunder, or fog.

DCZ001-MDZ009-015-VAZ040>042-051-053>054-311700-
WASHINGTON METRO

CITY           SKY/WX    TMP DP  RH WIND       PRES   REMARKS
WASHINGTON NAT SUNNY     29   3  33 N15G22    30.37R WCI  18
DULLES         SUNNY     24   3  40 NW17G28   30.34F WCI  11
ANDREWS AFB    SUNNY     25   2  36 NW13G22   30.33R WCI  14
FT BELVOIR     SUNNY     27   2  34 NW14G23   30.37R WCI  15
QUANTICO       SUNNY     29   3  33 N15G25    30.38S WCI  18
COLLEGE PARK*  SUNNY     28   3  34 NW10      30.35R WCI  19
LEESBURG*      SUNNY     27   9  46 N14       30.35S WCI  15
MANASSAS*      SUNNY     27   7  43 MISG      30.36S
GAITHERSBURG*  SUNNY     21   3  45 NW14G20   30.35S WCI   8

$$

MDZ006>007-011-014-311700-
BALTIMORE METRO

CITY           SKY/WX    TMP DP  RH WIND       PRES   REMARKS
BWI AIRPORT    SUNNY     25   3  38 NW14G23   30.32S WCI  13
MD SCIENCE CTR   N/A     24   2  38 MISG      30.33S
MARTIN STATE   SUNNY     27   5  39 NW13G21   30.34R WCI  16
ANNAPOLIS      SUNNY     25   6  44 NW12      30.33R WCI  14
FORT MEADE*    SUNNY     27   5  39 NW13G18   30.35F WCI  16

$$

MDZ012-015-019>023-311700-
MARYLAND EASTERN SHORE

CITY           SKY/WX    TMP DP  RH WIND       PRES   REMARKS
OCEAN CITY     SUNNY     27   3  35 N22G29    30.27S WCI  13
SALISBURY      SUNNY     29   6  38 NW17G26   30.29R WCI  17
BAY BRIDGE AP*   N/A     27   5  39 NW10G17   30.33S WCI  17
CAMBRIDGE*     SUNNY     30   9  40 NW12G21   30.31S WCI  21
EASTON*        SUNNY     28  10  47 NW17G24   30.35R WCI  16

$$

MDZ017>025-311700-
SOUTHERN MARYLAND

CITY           SKY/WX    TMP DP  RH WIND       PRES   REMARKS
PATUXENT RIVER SUNNY     28   2  32 NW21G29   30.33R WCI  15
ST INIGOES     SUNNY     29  -1  27 NW12G26   30.33R WCI  19
LEONARDTOWN*   SUNNY     28   0  29 W12G23      N/A  WCI  18

$$

MDZ003>005-311700-
NORTH CENTRAL MARYLAND

CITY           SKY/WX    TMP DP  RH WIND       PRES   REMARKS
FREDERICK*     SUNNY     27   1  33 NW12G17   30.37S WCI  16
HAGERSTOWN APT SUNNY     20   4  50 N10       30.33R WCI   9
WESTMINSTER*   SUNNY     19   5  53 NW13G18   30.28S WCI   7

$$

MDZ501>502-311700-
WESTERN MARYLAND

CITY           SKY/WX    TMP DP  RH WIND       PRES   REMARKS
OAKLAND*       PTSUNNY   14  12  92 W9G21     30.19R WCI   2
CUMBERLAND*    SUNNY     27   9  46 NW14G20   30.37F WCI  15

$$

VAZ025>031-311700-
SHENANDOAH VALLEY

CITY           SKY/WX    TMP DP  RH WIND       PRES   REMARKS
WINCHESTER*    SUNNY     27   5  39 NW7       30.33S
FRONT ROYAL*   FAIR      28   5  37 NW6       30.31S
LURAY*         FAIR      32   5  32 CALM      30.31R
NEW MARKET*    FAIR      28   4  36 SE3       30.30S
STAUNTON*      SUNNY     28   2  34 CALM      30.31S
WAYNESBORO*    FAIR      29  -1  27 SW5       30.27S

$$

WVZ021-048>050-054>055-311700-
EASTERN WEST VIRGINIA PANHANDLE

CITY           SKY/WX    TMP DP  RH WIND       PRES   REMARKS
MARTINSBURG    SUNNY     24   5  44 NW13G20   30.34S WCI  12
PETERSBURG*    SUNNY     24   1  37 SE3       30.33F

$$

VAZ036>039-050-311700-
CENTRAL FOOTHILLS

CITY           SKY/WX    TMP DP  RH WIND       PRES   REMARKS
CHARLOTTESVILL SUNNY     31   1  28 S7        30.32R
CULPEPER*      SUNNY     30   0  27 N3        30.35R
ORANGE*        SUNNY     32   5  32 CALM      30.35S
GORDONSVILLE*  FAIR      30   6  37 CALM      30.33S
WARRENTON*     FAIR      32  11  42 NW6       30.34R

$$

VAZ055>057-311700-
NORTH AND CENTRAL PIEDMONT

CITY           SKY/WX    TMP DP  RH WIND       PRES   REMARKS
FREDERICKSBRG* SUNNY     30   3  31 NW9       30.36S WCI  22
STAFFORD*      SUNNY     29   0  28 CALM      30.40S

$$

NCZ024-NYZ072-PAZ021-071-VAZ022-071-311700-
OTHER REGIONAL OBSERVATIONS

CITY           SKY/WX    TMP DP  RH WIND       PRES   REMARKS
NEW YORK CITY  SUNNY     18  -5  36 NW14G29   30.15R WCI   4
PHILADELPHIA   SUNNY     21  -2  36 NW20G29   30.28S WCI   6
PITTSBURGH     MOSUNNY   18   9  68 SW7       30.34R
ROANOKE        MOSUNNY   33   8  35 SW10      30.33R WCI  25
RICHMOND       SUNNY     30   6  36 W5        30.36S
RALEIGH        PTSUNNY   37   5  26 W10       30.38R

$$

ANZ530>537-311700-
MARINE OBSERVATIONS

STATION/POSITION TIME  TEMP    WIND        PRES
                       AIR SEA DIR/SP/G
                 (UTC) (F)     (DEG/KT/KT) (MB)
THOMAS PT LIGHT  1600   24 34  330/ 14/ 17 1028.0R
BALT KEY BRIDGE  1600   22     310/ 13/ 15 1027.1S
COVE POINT       1600   23     340/ 19/ 21 1026.9R
LEWISETTA        1600   25 34  320/ 19/ 22 1027.6S
SOLOMONS ISLAND  1600      36                N/A
PINEY POINT      1600          330/ 19/ 22   N/A

$$




USA.gov is the U.S. government's official web portal to all federal, state and local government web resources and services.